Location: Simi Valley
(34.2690°N, 118.7810°W)
Time: 05:10:29
(UTC-07:00)

SAR-Lupe-1 - Visible Passes

Search period start: 23 August 2017 00:00
Search period end: 02 September 2017 00:00
Orbit: 480 x 487 km, 98.1° (Epoch: 15 August)

Date Brightness Start Highest point End Pass type
(mag) Time Alt. Az. Time Alt. Az. Time Alt. Az.
23 Aug 6.1 21:48:59 23° N 21:48:59 23° N 21:50:30 10° N visible
24 Aug 6.1 21:24:11 18° NNE 21:24:11 18° NNE 21:25:28 10° NNE visible
25 Aug 6.5 20:59:23 11° NE 20:59:23 11° NE 20:59:40 10° NE visible
25 Aug 7.3 22:33:43 12° NW 22:33:43 12° NW 22:34:08 10° NW visible
26 Aug 6.8 22:08:55 17° NNW 22:08:55 17° NNW 22:09:51 10° NNW visible
27 Aug 6.4 21:44:07 18° N 21:44:07 18° N 21:45:08 10° N visible
28 Aug 6.5 21:19:18 13° NNE 21:19:18 13° NNE 21:19:57 10° NNE visible
29 Aug 7.5 22:28:51 11° NNW 22:28:51 11° NNW 22:28:57 10° NNW visible
30 Aug 7.0 22:04:02 14° NNW 22:04:02 14° NNW 22:04:33 10° NNW visible
31 Aug 6.8 21:39:13 13° N 21:39:13 13° N 21:39:43 10° N visible
